Home   Weather   Mashhad   Past weeks

Flag for Iran Past Weather in Mashhad, Iran — Yesterday and Last 2 Weeks

Now
41 °F

Overcast.


Feels Like: 36 °F
Forecast: 34 / 59 °F
Wind: 7 mph from West

Location: Mashhad Airport

Current Time: Dec 8, 2016 at 12:10:08 am

Latest Report: Dec 7, 2016 at 11:30 pm


Visibility: 5 mi

Pressure: 30.12 "Hg (26.70 "Hg at 981m altitude)

Humidity: 81%

Dew Point: 36 °F

Location of MashhadLocation

Past Weather in Mashhad — Graph

°F

Mashhad Temperature Yesterday

Maximum temperature yesterday: 45 °F (at 12:00 am)
Minimum temperature yesterday: 39 °F (at 5:30 am)
Average temperature yesterday: 40 °F

High & Low Weather Summary for the Past Weeks

 TemperatureHumidityPressure
High77 °F (Dec 3, 12:00 pm)100% (Dec 7, 6:00 pm)30.57 "Hg (Dec 7, 6:00 pm)
Low12 °F (Nov 23, 6:30 am)10% (Nov 27, 12:30 pm)29.92 "Hg (Dec 2, 2:30 pm)
Average43 °F42%30.22 "Hg
* Reported Nov 22 10:30 pm — Dec 7 11:00 pm, Mashhad, Weather by CustomWeather, © 2016

Note: Actual official high and low records may vary slightly from our data, if they occured in-between our weather recording intervals... More about our weather records

Advertising

Mashhad Weather History for the Previous 24 Hours

Scroll right to see more
 ConditionsComfort  
Time TempWeatherWind HumidityBarometerVisibility
11:00 pm
Wed, Dec 7
41 °FOvercast.5 mph81%30.12 "Hg4 mi
10:30 pm41 °FFog.5 mph87%30.15 "Hg3 mi
10:00 pm39 °FFog.7 mph93%30.15 "Hg2 mi
9:30 pm39 °FFog.5 mph93%30.18 "Hg3 mi
9:00 pm39 °FFog.5 mph93%30.18 "Hg3 mi
8:30 pm39 °FFog.No wind93%30.18 "Hg2 mi
8:00 pm39 °FLow clouds.No wind93%30.18 "Hg4 mi
7:30 pm39 °FLow clouds.No wind93%30.21 "Hg4 mi
7:00 pm39 °FLow clouds.5 mph100%30.21 "Hg4 mi
6:00 pm39 °FFog.7 mph100%30.21 "Hg3 mi
5:30 pm39 °FFog.7 mph93%30.21 "Hg3 mi
5:00 pm39 °FFog.5 mph93%30.21 "Hg2 mi
4:30 pm39 °FFog.7 mph93%30.21 "Hg2 mi
4:00 pm39 °FLight rain. Fog.9 mph93%30.21 "Hg3 mi
3:30 pm39 °FMostly cloudy.9 mph93%30.21 "Hg4 mi
3:00 pm39 °FFog.9 mph93%30.21 "Hg3 mi
2:30 pm39 °FLight rain. Fog.7 mph93%30.21 "Hg3 mi
2:00 pm39 °FMostly cloudy.12 mph93%30.21 "Hg4 mi
1:30 pm39 °FMostly cloudy.9 mph93%30.21 "Hg4 mi
1:00 pm41 °FMostly cloudy.7 mph87%30.24 "Hg5 mi
12:30 pm41 °FMostly cloudy.9 mph81%30.24 "HgN/A
12:00 pm43 °FMore clouds than sun.9 mph76%30.27 "HgN/A
11:30 am41 °FMore clouds than sun.5 mph81%30.27 "HgN/A
11:00 am41 °FMore clouds than sun.7 mph81%30.27 "HgN/A
10:30 am41 °FMore clouds than sun.7 mph76%30.27 "HgN/A
10:00 am41 °FMore clouds than sun.5 mph76%30.27 "HgN/A
9:30 am41 °FMore clouds than sun.9 mph76%30.27 "HgN/A
9:00 am41 °FMore clouds than sun.9 mph76%30.27 "HgN/A
8:30 am41 °FMore clouds than sun.5 mph76%30.27 "HgN/A
8:00 am39 °FMore clouds than sun.5 mph87%30.24 "Hg4 mi
7:30 am39 °FMore clouds than sun.5 mph81%30.24 "Hg4 mi
7:00 am39 °FMostly cloudy.5 mph81%30.24 "Hg4 mi
6:30 am39 °FLight rain. Mostly cloudy.5 mph81%30.21 "Hg4 mi
6:00 am39 °FLight rain. Mostly cloudy.7 mph87%30.21 "Hg2 mi
5:30 am39 °FLight rain. Mostly cloudy.7 mph81%30.18 "Hg4 mi
5:00 am41 °FLight rain. Mostly cloudy.5 mph66%30.18 "Hg5 mi
4:30 am41 °FLight rain. Passing clouds.7 mph61%30.18 "Hg5 mi
4:00 am43 °FClear.5 mph57%30.15 "Hg10 mi
3:30 am43 °FClear.5 mph57%30.12 "Hg10 mi
3:00 am41 °FClear.5 mph61%30.12 "Hg10 mi
2:30 am41 °FClear.5 mph61%30.12 "Hg10 mi
2:00 am41 °FClear.No wind61%30.09 "Hg10 mi
1:30 am41 °FClear.No wind61%30.09 "Hg10 mi
1:00 am41 °FClear.No wind57%30.09 "Hg10 mi
12:30 am43 °FClear.5 mph53%30.09 "Hg10 mi
12:00 am45 °FClear.5 mph49%30.09 "Hg10 mi
Weather by CustomWeather, © 2016

See weather overviewHow to use our weather pages